Regional Weather Roundup
Issued by NWS

Home | Current Version | Previous Version | Graphics & Text | Print | Product List | Glossary On
Versions: 1 2 3 4 5 6 7 8 9 10 11 12 13 14 15 16 17 18 19 20 21 22 23 24 25 26 27 28 29 30 31 32 33 34 35 36 37 38 39 40 41 42 43 44 45 46 47 48 49 50
000
ASUS45 KPSR 252310
RWRAZ

ARIZONA REGIONAL HOURLY WEATHER ROUNDUP
NATIONAL WEATHER SERVICE PHOENIX AZ
400 PM MST SUN JAN 25 2015

NOTE: FAIR INDICATES FEW OR NO CLOUDS BELOW 12,000 FEET WITH NO
SIGNIFICANT WEATHER AND/OR OBSTRUCTIONS TO VISIBILITY.

AZZ001>003-036-260000-
NORTHWEST ARIZONA

CITY           SKY/WX    TMP DP  RH WIND       PRES   REMARKS
BULLHEAD CITY  SUNNY     75  32  20 N30G37    30.04S
KINGMAN        SUNNY     67  25  20 N18       30.15F
$$

AZZ004>008-015-016-018-260000-
NORTH CENTRAL ARIZONA

CITY           SKY/WX    TMP DP  RH WIND       PRES   REMARKS
GRAND CANYON   SUNNY     52  21  29 E9        30.32S
PRESCOTT       SUNNY     68  18  14 N5        30.19F
FLAGSTAFF      SUNNY     53  20  27 NE13      30.30S
PAYSON         SUNNY     66  19  16 NE13      30.20R
$$

AZZ009>014-017-260000-
NORTHEAST ARIZONA

CITY           SKY/WX    TMP DP  RH WIND       PRES   REMARKS
WINSLOW        SUNNY     56  23  27 W3        30.28S
SAINT JOHNS    SUNNY     54  18  24 W5        30.26S
WINDOW ROCK    SUNNY     56  26  31 S10       30.27S
SHOW LOW       SUNNY     48  18  29 N9        30.30S
$$

AZZ023-260000-
GREATER PHOENIX AREA

CITY           SKY/WX    TMP DP  RH WIND       PRES   REMARKS
PHOENIX        PTSUNNY   75  21  13 S7        30.01S
BUCKEYE          N/A     72  25  17 E6        30.02F
GLENDALE       PTSUNNY   75  27  16 S5        30.03S
LUKE AFB       NOT AVBL
DEER VALLEY    MOSUNNY   74  22  14 SE3       30.02S
SCOTTSDALE     MOSUNNY   76  25  15 S5        30.04S
MESA-FALCON    MOSUNNY   72  21  15 SW12      30.03R
MESA-GATEWAY   MOSUNNY   73  27  17 CALM      30.05S
CHANDLER       PTSUNNY   72  27  18 VRB5      30.03
$$

AZZ027-028-260000-
SOUTHWEST MARICOPA COUNTY AND PINAL COUNTY

CITY           SKY/WX    TMP DP  RH WIND       PRES   REMARKS
CASA GRANDE    CLOUDY    72  21  15 E7        30.03S
GILA BEND      FAIR      74  19  12 E12       30.00F
$$

AZZ503-504-507>509-260000-
SOUTHEAST ARIZONA

CITY           SKY/WX    TMP DP  RH WIND       PRES   REMARKS
TUCSON         PTSUNNY   73  11   9 E14       30.07F
DAVIS-MONTHAN  PTSUNNY   72  11   9 NE2       30.05F
RYAN FIELD       N/A     73  14  10 E14       30.06S
NOGALES        PTSUNNY   72  24  16 SE10      30.09S
SIERRA VISTA   PTSUNNY   66  16  14 SE13      30.15R
DOUGLAS        MOSUNNY   68  20  16 E12       30.14R
SAFFORD        SUNNY     64  17  16 VRB3      30.13F
$$

AZZ020-021-025-026-031-260000-
SOUTHWEST ARIZONA

CITY           SKY/WX    TMP DP  RH WIND       PRES   REMARKS
YUMA           PTSUNNY   76  30  18 NE6       30.00F
$$

CAZ031-033-041-043-047-048-061-260000-
SOUTHERN CALIFORNIA

CITY           SKY/WX    TMP DP  RH WIND       PRES   REMARKS
DOWNTOWN L.A.  PTSUNNY   80  30  16 W5        29.94S
L.A. AIRPORT   PTSUNNY   74  32  21 NW6       29.95S
SAN DIEGO      CLOUDY    73  38  27 NW9       29.97R
BURBANK        MOSUNNY   78  26  14 SW3       29.97S
ONTARIO        CLOUDY    78  27  15 NW5       29.98R
RIVERSIDE      CLOUDY    78  27  15 E9        29.99R
PALM SPRINGS   CLOUDY    80  25  13 NW6       30.03S
EL CENTRO NAS  MOSUNNY   78  25  14 NE5       30.00F
IMPERIAL       MOSUNNY   78  28  16 CALM      30.00F
BLYTHE         CLOUDY    73  36  25 E8        30.01F
NEEDLES        SUNNY     77  28  16 N22G30    30.03F
$$

NVZ020-UTZ003-260000-
SOUTHERN NEVADA-UTAH

CITY           SKY/WX    TMP DP  RH WIND       PRES   REMARKS
LAS VEGAS      MOSUNNY   73  31  21 W7        30.12F
SALT LAKE CITY MOSUNNY   50  35  56 N9        30.41F
$$

NMZ009-TXZ055-260000-
NEW MEXICO-WEST TEXAS

CITY           SKY/WX    TMP DP  RH WIND       PRES   REMARKS
ALBUQUERQUE    MOSUNNY   53  21  28 SW3       30.24F
EL PASO        PTSUNNY   62  24  23 NE5       30.19R
$$


........................KEY........................
SKY/WX - SKY CONDITION/WEATHER
TMP    - TEMPERATURE IN FAHRENHEIT
DP     - DEW POINT IN FAHRENHEIT
RH     - RELATIVE HUMIDITY IN PERCENT
WIND   - DIRECTION AND SPEED IN MILES PER HOUR (MPH)
VRB    - VARIABLE WIND DIRECTION
PRES   - MEAN SEA LEVEL PRESSURE IN INCHES OF MERCURY
         F - FALLING PRESSURE   R - RISING PRESSURE
         S - STEADY PRESSURE
VSB    - VISIBILITY IN MILES
HX     - HEAT INDEX IN FAHRENHEIT
WCI    - WIND CHILL INDEX IN FAHRENHEIT
TC     - TEMPERATURE IN CELSIUS WHICH IS ALSO KNOWN AS
         TEMPERATURE IN CENTIGRADE
AFB    - AIR FORCE BASE
         LUKE AFB IS LUKE AIR FORCE BASE
         DAVIS-MONTHAN IS DAVIS-MONTHAN AIR FORCE BASE
NAS    - NAVAL AIR STATION
         EL CENTRO NAS IS EL CENTRO NAVAL AIR STATION
N/A    - NOT AVAILABLE



USA.gov is the U.S. government's official web portal to all federal, state and local government web resources and services.